GW3691 Weather Reports


Display with metric or nautical units.
time (UTC)temp
F
wind
direction
speed
MPH
gust
MPH
rain 1hr
in
rain 24hr
in
rain mn
in
humidity
%
barometer
mb
20260831013320 80 164 0.0 0.0 0.00 0.00 0.00 90 1021.8
20260831012815 80 154 0.0 0.0 0.00 0.00 0.00 90 1021.7
20260831012310 80 153 0.0 0.0 0.00 0.00 0.00 90 1021.5
20260831011809 80 155 0.0 0.0 0.00 0.00 0.00 90 1021.6
20260831011304 81 147 0.0 0.0 0.00 0.00 0.00 90 1021.4
20260831010800 81 148 0.0 0.0 0.00 0.00 0.00 89 1021.3
20260831010255 81 152 0.0 0.0 0.00 0.00 0.00 89 1021.4
20260831005751 81 152 0.0 0.0 0.00 0.00 0.00 89 1021.5
20260831005246 81 152 0.0 0.0 0.00 0.00 0.00 89 1021.5
20260831004741 81 153 0.0 0.0 0.00 0.00 0.00 89 1021.1
20260831004237 81 156 0.0 0.0 0.00 0.00 0.00 88 1021.4
20260831003732 81 152 0.0 0.0 0.00 0.00 0.00 88 1020.9
20260831003229 81 144 0.0 0.0 0.00 0.00 0.00 88 1021.1
20260831002728 81 147 0.0 0.0 0.00 0.00 0.00 87 1021.0
20260831002227 81 154 0.0 0.0 0.00 0.00 0.00 87 1021.1
20260831001723 81 150 0.0 0.0 0.00 0.00 0.00 86 1021.2
20260831001218 81 152 0.0 0.0 0.00 0.00 0.00 86 1021.1
20260831000715 81 123 0.0 0.0 0.00 0.00 0.00 86 1021.1
20260831000211 81 150 0.0 0.0 0.00 0.00 0.00 86 1021.2
20260830235709 82 145 0.0 0.0 0.00 0.00 0.00 85 1021.2
20260830235204 82 150 0.0 0.0 0.00 0.00 0.00 85 1020.8
20260830234659 82 148 0.0 0.0 0.00 0.00 0.00 84 1020.8
20260830234154 82 151 0.0 0.0 0.00 0.00 0.00 84 1021.0
20260830233650 82 157 0.0 0.0 0.00 0.00 0.00 84 1020.9
20260830233145 82 143 0.0 0.0 0.00 0.00 0.00 83 1020.9
20260830232641 82 150 0.0 0.0 0.00 0.00 0.00 84 1020.8
20260830232137 82 146 0.0 0.0 0.00 0.00 0.00 84 1020.6
20260830231633 82 120 0.0 0.0 0.00 0.00 0.00 83 1020.7
20260830231132 82 159 0.0 1.0 0.00 0.00 0.00 83 1020.7
20260830230627 83 145 1.0 2.0 0.00 0.00 0.00 83 1021.0
20260830230127 83 124 1.0 1.0 0.00 0.00 0.00 83 1020.9
20260830225617 83 149 0.0 0.0 0.00 0.00 0.00 83 1020.7
20260830225112 83 153 1.0 1.0 0.00 0.00 0.00 83 1020.9
20260830224610 83 134 1.0 1.0 0.00 0.00 0.00 82 1020.7
20260830224107 83 149 0.0 0.0 0.00 0.00 0.00 82 1020.7
20260830223603 84 137 0.0 1.0 0.00 0.00 0.00 81 1020.6
20260830223103 84 120 0.0 0.0 0.00 0.00 0.00 81 1020.6
20260830222557 85 174 1.0 1.0 0.00 0.00 0.00 80 1020.3
20260830222054 85 131 3.0 5.0 0.00 0.00 0.00 79 1020.5
20260830221549 85 152 0.0 0.0 0.00 0.00 0.00 79 1020.5
20260830221040 85 55 2.0 2.0 0.00 0.00 0.00 80 1020.6
20260830220539 85 125 1.0 1.0 0.00 0.00 0.00 80 1020.6
20260830220037 85 141 0.0 0.0 0.00 0.00 0.00 80 1020.5
20260830215532 86 80 1.0 2.0 0.00 0.00 0.00 79 1020.7
20260830215026 86 142 0.0 0.0 0.00 0.00 0.00 80 1020.5
20260830214522 86 158 2.0 2.0 0.00 0.00 0.00 79 1020.5
20260830214021 88 116 3.0 3.0 0.00 0.00 0.00 77 1020.4
20260830213516 89 103 2.0 3.0 0.00 0.00 0.00 74 1020.5
20260830213012 89 25 2.0 3.0 0.00 0.00 0.00 74 1020.6
20260830212507 89 143 1.0 1.0 0.00 0.00 0.00 74 1020.4
20260830212002 89 129 1.0 1.0 0.00 0.00 0.00 73 1020.4
20260830211456 89 149 1.0 1.0 0.00 0.00 0.00 73 1020.6
20260830210951 90 80 3.0 5.0 0.00 0.00 0.00 72 1020.6
20260830210445 90 180 2.0 3.0 0.00 0.00 0.00 71 1020.4
20260830205943 90 146 1.0 1.0 0.00 0.00 0.00 73 1020.5
20260830205442 89 143 2.0 2.0 0.00 0.00 0.00 73 1020.8
20260830204938 91 120 4.0 5.0 0.00 0.00 0.00 72 1020.9
20260830204437 91 53 1.0 1.0 0.00 0.00 0.00 72 1020.5
20260830203931 91 78 2.0 2.0 0.00 0.00 0.00 71 1020.6
20260830203428 91 126 1.0 1.0 0.00 0.00 0.00 72 1020.6
20260830202921 90 100 5.0 8.0 0.00 0.00 0.00 71 1020.6
20260830202417 91 139 1.0 2.0 0.00 0.00 0.00 71 1020.7
20260830201912 91 173 1.0 1.0 0.00 0.00 0.00 72 1020.8
20260830201406 91 116 1.0 2.0 0.00 0.00 0.00 71 1020.9
20260830200902 91 114 1.0 1.0 0.00 0.00 0.00 72 1020.9
20260830200402 91 106 1.0 2.0 0.00 0.00 0.00 70 1021.2
20260830195856 91 150 1.0 1.0 0.00 0.00 0.00 72 1021.2
20260830195355 91 167 1.0 2.0 0.00 0.00 0.00 71 1021.2
20260830194854 91 132 2.0 3.0 0.00 0.00 0.00 71 1021.2
20260830194348 90 77 2.0 2.0 0.00 0.00 0.00 73 1021.3
20260830193843 91 128 2.0 3.0 0.00 0.00 0.00 71 1021.2
20260830193337 91 183 2.0 2.0 0.00 0.00 0.00 72 1021.3
20260830192833 92 33 2.0 3.0 0.00 0.00 0.00 71 1021.3
20260830192333 91 121 1.0 2.0 0.00 0.00 0.00 71 1021.4
20260830191829 89 143 2.0 2.0 0.00 0.00 0.00 72 1021.2
20260830191328 92 87 3.0 3.0 0.00 0.00 0.00 69 1021.4
20260830190825 93 122 1.0 1.0 0.00 0.00 0.00 69 1021.3
20260830190324 91 126 2.0 2.0 0.00 0.00 0.00 67 1021.4
20260830185822 92 60 2.0 3.0 0.00 0.00 0.00 70 1021.2
20260830185318 91 108 0.0 1.0 0.00 0.00 0.00 71 1021.6
20260830184813 91 119 2.0 2.0 0.00 0.00 0.00 68 1021.6
20260830184312 91 132 3.0 3.0 0.00 0.00 0.00 69 1021.6
20260830183807 91 105 1.0 1.0 0.00 0.00 0.00 71 1021.6
20260830183301 89 153 1.0 1.0 0.00 0.00 0.00 71 1021.4
20260830182757 91 127 3.0 3.0 0.00 0.00 0.00 71 1021.6
20260830182252 90 155 1.0 2.0 0.00 0.00 0.00 71 1021.6
20260830181748 90 44 2.0 3.0 0.00 0.00 0.00 72 1021.5
20260830181243 91 125 1.0 1.0 0.00 0.00 0.00 71 1021.6
20260830180742 90 154 3.0 5.0 0.00 0.00 0.00 71 1021.7
20260830180237 89 154 0.0 0.0 0.00 0.00 0.00 75 1021.8
20260830175732 89 155 1.0 1.0 0.00 0.00 0.00 72 1022.0
20260830175227 89 73 5.0 6.0 0.00 0.00 0.00 73 1022.0
20260830174721 90 127 3.0 3.0 0.00 0.00 0.00 71 1022.1
20260830174218 90 142 3.0 5.0 0.00 0.00 0.00 71 1022.2
20260830173717 91 133 1.0 1.0 0.00 0.00 0.00 70 1022.4
20260830173212 89 133 1.0 2.0 0.00 0.00 0.00 73 1022.2
20260830172709 91 108 3.0 5.0 0.00 0.00 0.00 70 1022.4
20260830172205 90 147 2.0 3.0 0.00 0.00 0.00 71 1022.4
20260830171700 89 126 1.0 2.0 0.00 0.00 0.00 70 1022.6
20260830171155 90 137 0.0 1.0 0.00 0.00 0.00 69 1022.5
20260830170649 89 117 3.0 5.0 0.00 0.00 0.00 71 1022.6
20260830170148 87 129 1.0 2.0 0.00 0.00 0.00 75 1022.6
20260830165643 89 130 1.0 3.0 0.00 0.00 0.00 73 1022.7
20260830165139 89 106 3.0 5.0 0.00 0.00 0.00 70 1022.6
20260830164636 89 135 0.0 1.0 0.00 0.00 0.00 71 1022.6
20260830164131 88 324 4.0 6.0 0.00 0.00 0.00 71 1022.8
20260830163628 89 130 0.0 1.0 0.00 0.00 0.00 72 1022.7
20260830163127 90 121 1.0 2.0 0.00 0.00 0.00 71 1022.6
20260830162622 91 116 1.0 2.0 0.00 0.00 0.00 69 1022.7
20260830162118 89 134 0.0 0.0 0.00 0.00 0.00 71 1022.6
20260830161618 89 129 3.0 3.0 0.00 0.00 0.00 70 1022.6
20260830161113 88 127 0.0 0.0 0.00 0.00 0.00 73 1022.8
20260830160609 88 151 0.0 0.0 0.00 0.00 0.00 72 1022.7
20260830160103 88 146 2.0 2.0 0.00 0.00 0.00 73 1022.7
20260830155600 90 141 0.0 0.0 0.00 0.00 0.00 71 1022.9
20260830155055 89 139 0.0 1.0 0.00 0.00 0.00 70 1022.8
20260830154550 87 116 0.0 0.0 0.00 0.00 0.00 74 1022.7
20260830154047 86 144 0.0 0.0 0.00 0.00 0.00 76 1022.7
20260830153543 86 141 0.0 1.0 0.00 0.00 0.00 77 1022.7
20260830153042 85 137 1.0 1.0 0.00 0.00 0.00 78 1023.0
20260830152537 86 144 0.0 1.0 0.00 0.00 0.00 77 1022.9
20260830152036 86 132 0.0 0.0 0.00 0.00 0.00 78 1023.2
20260830151530 86 135 1.0 2.0 0.00 0.00 0.00 77 1022.9
20260830151026 86 123 1.0 2.0 0.00 0.00 0.00 77 1023.2
20260830150525 86 135 1.0 1.0 0.00 0.00 0.00 77 1023.0
20260830150020 86 146 0.0 0.0 0.00 0.00 0.00 77 1023.1
20260830145519 87 157 0.0 0.0 0.00 0.00 0.00 75 1023.1
20260830145015 87 154 0.0 0.0 0.00 0.00 0.00 74 1022.9
20260830144510 86 135 1.0 1.0 0.00 0.00 0.00 76 1023.0
20260830144006 86 142 2.0 2.0 0.00 0.00 0.00 75 1023.0
20260830143501 87 145 0.0 0.0 0.00 0.00 0.00 76 1023.3
20260830142959 87 163 0.0 0.0 0.00 0.00 0.00 77 1023.1
20260830142455 87 137 1.0 1.0 0.00 0.00 0.00 75 1023.0
20260830141949 87 150 0.0 0.0 0.00 0.00 0.00 76 1023.0
20260830141445 86 146 1.0 1.0 0.00 0.00 0.00 77 1023.0
20260830140940 86 148 0.0 0.0 0.00 0.00 0.00 78 1023.0
20260830140435 86 145 0.0 1.0 0.00 0.00 0.00 77 1023.0
20260830135934 87 145 0.0 1.0 0.00 0.00 0.00 77 1023.0
20260830135430 86 146 0.0 0.0 0.00 0.00 0.00 78 1023.1
20260830134925 84 143 0.0 0.0 0.00 0.00 0.00 79 1023.2
20260830134421 84 138 0.0 0.0 0.00 0.00 0.00 80 1023.2
20260830133916 83 173 0.0 0.0 0.00 0.00 0.00 81 1023.1
20260830133412 84 168 0.0 0.0 0.00 0.00 0.00 80 1022.8
20260830132907 84 148 0.0 0.0 0.00 0.00 0.00 80 1022.8
20260830132403 84 150 0.0 0.0 0.00 0.00 0.00 80 1022.9
20260830131902 83 179 0.0 0.0 0.00 0.00 0.00 80 1022.8
20260830131402 83 173 0.0 0.0 0.00 0.00 0.00 80 1023.0
20260830130857 84 175 0.0 0.0 0.00 0.00 0.00 80 1023.1
20260830130353 84 156 0.0 0.0 0.00 0.00 0.00 79 1023.0
20260830125851 83 147 0.0 0.0 0.00 0.00 0.00 81 1023.0
20260830125347 84 150 0.0 0.0 0.00 0.00 0.00 82 1023.1
20260830124844 82 167 0.0 1.0 0.00 0.00 0.00 84 1022.9
20260830124339 82 166 0.0 1.0 0.00 0.00 0.00 85 1022.7
20260830123836 80 153 0.0 0.0 0.00 0.00 0.00 87 1022.8
20260830123332 80 158 0.0 0.0 0.00 0.00 0.00 89 1022.8
20260830122830 80 154 0.0 0.0 0.00 0.00 0.00 90 1022.7
20260830122325 80 145 0.0 0.0 0.00 0.00 0.00 94 1022.6
20260830121820 79 147 0.0 0.0 0.00 0.00 0.00 94 1022.3
20260830121319 78 147 0.0 0.0 0.00 0.00 0.00 96 1022.2
20260830120815 77 159 0.0 0.0 0.00 0.00 0.00 96 1022.1
20260830120310 76 159 0.0 0.0 0.00 0.00 0.00 96 1022.1
20260830115807 75 160 0.0 0.0 0.00 0.00 0.00 96 1022.3
20260830115306 75 160 0.0 0.0 0.00 0.00 0.00 96 1022.4
20260830114758 74 160 0.0 0.0 0.00 0.00 0.00 96 1022.2
20260830114253 74 160 0.0 0.0 0.00 0.00 0.00 96 1022.0
20260830113749 74 160 0.0 0.0 0.00 0.00 0.00 95 1022.1
20260830113244 74 160 0.0 0.0 0.00 0.00 0.00 96 1021.8
20260830112739 74 160 0.0 0.0 0.00 0.00 0.00 96 1021.8
20260830112235 74 160 0.0 0.0 0.00 0.00 0.00 96 1021.8
20260830111731 74 160 0.0 0.0 0.00 0.00 0.00 96 1021.7
20260830111221 73 160 0.0 0.0 0.00 0.00 0.00 96 1021.7
20260830110720 74 160 0.0 0.0 0.00 0.00 0.00 96 1021.6
20260830110218 74 160 0.0 0.0 0.00 0.00 0.00 96 1021.7
20260830105716 74 160 0.0 0.0 0.00 0.00 0.00 96 1021.6
20260830105212 74 160 0.0 0.0 0.00 0.00 0.00 95 1021.5
20260830104709 73 160 0.0 0.0 0.00 0.00 0.00 95 1021.4
20260830104206 74 160 0.0 0.0 0.00 0.00 0.00 96 1021.2
20260830103704 74 160 0.0 0.0 0.00 0.00 0.00 96 1021.4
20260830103200 74 160 0.0 0.0 0.00 0.00 0.00 96 1021.1
20260830102658 74 160 0.0 0.0 0.00 0.00 0.00 95 1021.1
20260830102154 73 160 0.0 0.0 0.00 0.00 0.00 95 1021.2
20260830101650 73 160 0.0 0.0 0.00 0.00 0.00 95 1021.0
20260830101145 74 160 0.0 0.0 0.00 0.00 0.00 95 1020.8
20260830100644 74 160 0.0 0.0 0.00 0.00 0.00 95 1020.7
20260830100138 74 160 0.0 0.0 0.00 0.00 0.00 95 1020.8
20260830095632 74 160 0.0 0.0 0.00 0.00 0.00 95 1020.8
20260830095129 74 160 0.0 0.0 0.00 0.00 0.00 95 1020.9
20260830094625 74 160 0.0 0.0 0.00 0.00 0.00 95 1020.7
20260830094120 75 160 0.0 0.0 0.00 0.00 0.00 95 1020.7
20260830093615 75 160 0.0 0.0 0.00 0.00 0.00 95 1020.9
20260830093111 75 160 0.0 0.0 0.00 0.00 0.00 95 1020.7
20260830092606 75 160 0.0 0.0 0.00 0.00 0.00 95 1020.9
20260830092103 75 160 0.0 0.0 0.00 0.00 0.00 95 1020.9
20260830091558 75 160 0.0 0.0 0.00 0.00 0.00 95 1020.7
20260830091057 75 159 0.0 0.0 0.00 0.00 0.00 95 1021.1
20260830090552 75 159 0.0 0.0 0.00 0.00 0.00 94 1021.1
20260830090047 75 159 0.0 0.0 0.00 0.00 0.00 94 1021.0
20260830085541 75 159 0.0 0.0 0.00 0.00 0.00 94 1021.2
20260830085037 75 159 0.0 0.0 0.00 0.00 0.00 94 1021.3
20260830084532 75 159 0.0 0.0 0.00 0.00 0.00 94 1021.2
20260830084027 75 159 0.0 0.0 0.00 0.00 0.00 94 1021.2
20260830083523 75 159 0.0 0.0 0.00 0.00 0.00 94 1021.3
20260830083022 75 159 0.0 0.0 0.00 0.00 0.00 94 1021.3
20260830082518 75 158 0.0 0.0 0.00 0.00 0.00 94 1021.6
20260830082013 75 159 0.0 0.0 0.00 0.00 0.00 94 1021.3
20260830081508 75 159 0.0 0.0 0.00 0.00 0.00 94 1021.3
20260830081007 75 159 0.0 0.0 0.00 0.00 0.00 94 1021.4
20260830080503 75 159 0.0 0.0 0.00 0.00 0.00 94 1021.4
20260830080002 75 159 0.0 0.0 0.00 0.00 0.00 94 1021.5
20260830075457 75 159 0.0 0.0 0.00 0.00 0.00 94 1021.5
20260830074953 75 159 0.0 0.0 0.00 0.00 0.00 94 1021.5
20260830074449 75 159 0.0 0.0 0.00 0.00 0.00 94 1021.7
20260830073944 75 161 0.0 0.0 0.00 0.00 0.00 94 1021.7
20260830073440 75 155 0.0 0.0 0.00 0.00 0.00 94 1021.7
20260830072935 75 157 0.0 0.0 0.00 0.00 0.00 94 1021.9
20260830072431 75 157 0.0 0.0 0.00 0.00 0.00 94 1021.9
20260830071931 75 157 0.0 0.0 0.00 0.00 0.00 94 1021.8
20260830071426 75 156 0.0 0.0 0.00 0.00 0.00 94 1022.0
20260830070924 75 156 0.0 0.0 0.00 0.00 0.00 94 1021.8
20260830070419 75 157 0.0 0.0 0.00 0.00 0.00 94 1022.0
20260830065918 75 157 0.0 0.0 0.00 0.00 0.00 94 1021.8
20260830065413 75 157 0.0 0.0 0.00 0.00 0.00 94 1021.5
20260830064911 75 157 0.0 0.0 0.00 0.00 0.00 93 1021.6
20260830064407 75 157 0.0 0.0 0.00 0.00 0.00 93 1021.4
20260830063906 75 156 0.0 0.0 0.00 0.00 0.00 93 1021.7
20260830063401 75 156 0.0 0.0 0.00 0.00 0.00 93 1021.8
20260830062900 75 156 0.0 0.0 0.00 0.00 0.00 93 1021.8
20260830062359 76 156 0.0 0.0 0.00 0.00 0.00 93 1021.5
20260830061854 76 157 0.0 0.0 0.00 0.00 0.00 93 1021.8
20260830061354 76 157 0.0 0.0 0.00 0.00 0.00 93 1021.8
20260830060851 76 157 0.0 0.0 0.00 0.00 0.00 93 1021.8
20260830060348 76 156 0.0 0.0 0.00 0.00 0.00 93 1021.8
20260830055847 76 156 0.0 0.0 0.00 0.00 0.00 93 1021.9
20260830055343 76 156 0.0 0.0 0.00 0.00 0.00 92 1021.8
20260830054838 76 156 0.0 0.0 0.00 0.00 0.00 92 1021.7
20260830054334 76 158 0.0 0.0 0.00 0.00 0.00 92 1022.0
20260830053830 76 159 0.0 0.0 0.00 0.00 0.00 92 1021.9
20260830053325 76 157 0.0 0.0 0.00 0.00 0.00 92 1021.6
20260830052824 77 157 0.0 0.0 0.00 0.00 0.00 91 1021.6
20260830052320 77 157 0.0 0.0 0.00 0.00 0.00 91 1021.7
20260830051816 77 156 0.0 0.0 0.00 0.00 0.00 90 1021.7
20260830051311 77 157 0.0 0.0 0.00 0.00 0.00 90 1021.5
20260830050809 77 153 0.0 0.0 0.00 0.00 0.00 90 1021.5
20260830050305 77 161 0.0 0.0 0.00 0.00 0.00 89 1021.4
20260830045802 77 157 0.0 0.0 0.00 0.00 0.00 89 1021.2
20260830045257 77 165 0.0 0.0 0.00 0.00 0.00 90 1021.4
20260830044756 77 158 0.0 0.0 0.00 0.00 0.00 90 1021.2
20260830044252 78 167 1.0 1.0 0.00 0.00 0.00 89 1021.2
20260830043748 78 163 0.0 0.0 0.00 0.00 0.00 89 1021.0
20260830043242 78 158 0.0 0.0 0.00 0.00 0.00 88 1021.1
20260830042739 78 147 0.0 0.0 0.00 0.00 0.00 88 1020.9
20260830042234 78 146 0.0 0.0 0.00 0.00 0.00 88 1020.7
20260830041732 78 147 0.0 0.0 0.00 0.00 0.00 88 1020.5
20260830041227 78 159 0.0 0.0 0.00 0.00 0.00 89 1020.6
20260830040723 78 140 0.0 0.0 0.00 0.00 0.00 88 1020.3
20260830040220 78 136 0.0 0.0 0.00 0.00 0.00 88 1020.5
20260830035717 78 148 0.0 0.0 0.00 0.00 0.00 88 1020.7
20260830035212 78 128 0.0 1.0 0.00 0.00 0.00 88 1020.5
20260830034707 78 162 0.0 0.0 0.00 0.00 0.00 88 1021.0
20260830034207 78 149 0.0 0.0 0.00 0.00 0.00 88 1021.2
20260830033703 78 106 0.0 1.0 0.00 0.00 0.00 89 1021.4
20260830033202 78 147 0.0 0.0 0.00 0.00 0.00 89 1021.4
20260830032657 78 152 0.0 0.0 0.00 0.00 0.00 89 1021.7
20260830032152 79 124 0.0 0.0 0.00 0.00 0.00 88 1021.9
20260830031647 79 146 0.0 0.0 0.00 0.00 0.00 88 1021.8
20260830031142 79 148 0.0 0.0 0.00 0.00 0.00 87 1022.0
20260830030638 79 149 0.0 0.0 0.00 0.00 0.00 87 1021.7
20260830030133 79 126 0.0 1.0 0.00 0.00 0.00 88 1021.8
20260830025632 79 155 0.0 0.0 0.00 0.00 0.00 90 1021.7
20260830025126 79 145 0.0 0.0 0.00 0.00 0.00 90 1022.1
20260830024622 79 150 0.0 0.0 0.00 0.00 0.00 90 1022.2
20260830024120 79 152 0.0 0.0 0.00 0.00 0.00 90 1022.1
20260830023618 79 150 0.0 0.0 0.00 0.00 0.00 90 1022.1
20260830023113 79 141 0.0 0.0 0.00 0.00 0.00 90 1022.1
20260830022608 79 151 0.0 0.0 0.00 0.00 0.00 90 1022.4
20260830022103 79 142 0.0 0.0 0.00 0.00 0.00 90 1022.5
20260830021557 79 147 0.0 0.0 0.00 0.00 0.00 90 1022.7
20260830021052 79 148 0.0 0.0 0.00 0.00 0.00 89 1022.8
20260830020550 79 138 0.0 0.0 0.00 0.00 0.00 89 1023.0
20260830020046 79 143 0.0 0.0 0.00 0.00 0.00 89 1023.0
20260830015541 79 141 0.0 0.0 0.00 0.00 0.00 89 1023.0
20260830015037 79 144 0.0 0.0 0.00 0.00 0.00 88 1023.1
20260830014532 79 148 0.0 0.0 0.00 0.00 0.00 88 1023.2
20260830014027 79 148 0.0 0.0 0.00 0.00 0.00 88 1023.3
20260830013517 79 148 0.0 0.0 0.00 0.00 0.00 88 1023.1